Weather Roundup
Issued by NWS Chicago, IL

Home | Current Version | Previous Version | Graphics & Text | Print | Product List | Glossary On
Versions: 1 2 3 4 5 6 7 8 9 10 11 12 13 14 15 16 17 18 19 20 21 22 23 24 25 26 27 28 29 30 31 32 33 34 35 36 37 38 39 40 41 42 43 44 45 46 47 48 49 50
000
NZUS59 KLOT 301206
HRRLOT

CHICAGO AREA WEATHER ROUNDUP
NATIONAL WEATHER SERVICE CHICAGO/ROMEOVILLE IL
700 AM CDT SAT AUG 30 2014

NOTE: "FAIR" INDICATES FEW OR NO CLOUDS BELOW 12,000 FEET WITH NO
SIGNIFICANT WEATHER AND/OR OBSTRUCTIONS TO VISIBILITY.

* THESE STATIONS ARE NOT UNDER NWS QUALITY CONTROL. THEY ALSO MAY NOT
  REPORT WEATHER SUCH AS PRECIPITATION OR FOG.

ILZ005-006-012>014-019>023-301300-
NORTHEAST ILLINOIS

CITY           SKY/WX    TMP DP  RH WIND       PRES   REMARKS
OHARE          HVY RAIN  73  67  81 SW22G30   29.88R VSB 1
6HR MIN TEMP:  73; 6HR MAX TEMP:  75; 6HR PCP:  0.01;

MIDWAY         CLOUDY    75  70  84 SW9       29.86R
6HR MIN TEMP:  75; 6HR MAX TEMP:  78; 6HR PCP: TRACE;

AURORA         MOCLDY    71  68  90 S7        29.86F FOG
6HR MIN TEMP:  71; 6HR MAX TEMP:  74; 6HR PCP:  0.34;

LANSING*         N/A    N/A N/A N/A MISG        N/A
JOLIET*        MOCLDY    73  68  86 SW8       29.87S
WAUKEGAN       PTCLDY    71  68  90 SW9       29.82S
6HR MIN TEMP:  71; 6HR MAX TEMP:  75; 6HR PCP: TRACE;

DUPAGE AIRPORT MOCLDY    71  69  93 S7        29.85S THUNDER
6HR MIN TEMP:  71; 6HR MAX TEMP:  75; 6HR PCP:  0.19;

WHEELING       CLOUDY    75  69  81 SW10      29.87R
6HR MIN TEMP:  74; 6HR MAX TEMP:  77; 6HR PCP: TRACE;

KANKAKEE*      MOCLDY    72  70  94 S12       29.90S
MORRIS*        CLOUDY    73  71  92 SW9       29.87S
LEWIS AIRPORT* CLOUDY    73  70  91 SW15      29.87S
NORTHERLY IS     N/A     74  68  81 SW10        N/A
$$

WIZ051-052-058>065-066-070>072-301300-
SOUTHEAST WISCONSIN

CITY           SKY/WX    TMP DP  RH WIND       PRES   REMARKS
MILWAUKEE      MOCLDY    72  67  84 SW13      29.81F
6HR MIN TEMP:  72; 6HR MAX TEMP:  74; 6HR PCP: TRACE;

KENOSHA*       PTCLDY    72  68  87 SW13G21   29.83R
RACINE*        MOCLDY    72  68  87 SW7       29.83S
BURLINGTON     MOCLDY    69  66  92 S8        29.81F
WAUKESHA       MOCLDY    68  66  94 S5        29.81F
WEST BEND      PTCLDY    70  64  83 S8        29.79F
$$

INZ001>003-010>013-019-020-301300-
NORTHWEST INDIANA

CITY           SKY/WX    TMP DP  RH WIND       PRES   REMARKS
GARY*          PTCLDY    73  70  88 S8        29.88R
MICHIGAN CITY* NOT AVBL
RENSSELAER*    NOT AVBL
VALPARAISO     CLOUDY    72  68  87 S10       29.90S
$$

LMZ740>746-301300-
SOUTHERN LAKE MICHIGAN

STATION/POSITION TIME  SKY/WX   TEMP WIND        PRES    VSBY
                                AIR  DIR/SP/G
                 (UTC)          (F)  (DEG/KT/KT) (MB)    (MI)
HARRISON CRIB    1200            74  200/ 15/ 18   N/A
BURNHAM HARBOR   1200            74  180/  6/ 14   N/A
CALUMET HARBOR   1200            74  190/  7/ 10 1010.2F
BURNS HARBOR     NOT AVBL
MICHIGAN CITY    1200            73  170/ 14/ 17   N/A
$$

ABBREVIATIONS USED IN REMARKS
   TC - TEMPERATURE IN CELSIUS
  WCI - WIND CHILL INDEX
   HX - HEAT INDEX
  VSB - VISIBILITY
$$



USA.gov is the U.S. government's official web portal to all federal, state and local government web resources and services.